Location: Newark
(35.6799°N, 139.7636°E)
Time: 16:08:57
(UTC+00:00)

S-56A Canister/Altair - All Passes

Search period start: 08 December 2019 00:00
Search period end: 18 December 2019 00:00
Orbit: 633 x 2499 km, 38.9° (Epoch: 07 December)

Date Brightness Start Highest point End Pass type
(mag) Time Alt. Az. Time Alt. Az. Time Alt. Az.
08 Dec - 01:09:44 10° SW 01:24:14 74° SSE 01:38:39 10° ENE daylight
08 Dec - 03:16:12 10° W 03:31:36 80° N 03:44:28 10° E daylight
08 Dec - 05:24:13 10° WNW 05:39:00 85° NNE 05:49:36 10° ESE daylight
08 Dec - 07:32:12 10° WNW 07:44:32 54° SW 07:52:54 10° SE daylight
08 Dec - 09:42:57 10° W 09:47:19 14° SW 09:51:04 10° SSW visible
08 Dec - 22:34:45 10° S 22:45:19 30° SE 22:57:18 10° E daylight
09 Dec - 00:36:35 10° SW 00:50:35 69° SSE 01:05:15 10° ENE daylight
09 Dec - 02:42:32 10° W 02:57:50 82° N 03:11:20 10° ENE daylight
09 Dec - 04:50:21 10° WNW 05:05:28 82° N 05:16:47 10° E daylight
09 Dec - 06:58:17 10° WNW 07:11:29 61° SSW 07:20:31 10° SE daylight
09 Dec - 09:08:00 10° W 09:14:41 18° SW 09:20:03 10° SSW visible
09 Dec - 22:02:36 10° S 22:12:09 26° SE 22:23:07 10° E daylight
10 Dec - 00:03:34 10° SW 00:17:00 64° SSE 00:31:44 10° ENE daylight
10 Dec - 02:08:59 10° WSW 02:24:04 84° NNW 02:38:08 10° ENE daylight
10 Dec - 04:16:32 10° W 04:31:52 81° N 04:43:51 10° E daylight
10 Dec - 06:24:23 10° WNW 06:38:18 68° SSW 06:48:01 10° SE daylight
10 Dec - 08:33:30 10° W 08:41:59 23° SW 08:48:31 10° S visible
10 Dec - 21:30:43 10° S 21:39:04 21° SE 21:48:41 10° E daylight
10 Dec - 23:30:42 10° SW 23:43:28 59° SE 23:58:08 10° ENE daylight
11 Dec - 01:35:32 10° WSW 01:50:16 86° NNW 02:04:50 10° ENE daylight
11 Dec - 03:42:46 10° W 03:58:11 79° N 04:10:50 10° E daylight
11 Dec - 05:50:31 10° WNW 06:05:01 73° SSW 06:15:27 10° SE daylight
11 Dec - 07:59:12 10° W 08:09:12 29° SW 08:16:42 10° S visible
11 Dec - 20:59:12 10° SSE 21:06:03 17° SE 21:13:54 10° E visible
11 Dec - 22:57:56 10° SW 23:10:01 53° SE 23:24:27 10° ENE daylight
12 Dec - 01:02:12 10° WSW 01:16:30 89° NNW 01:31:26 10° ENE daylight
12 Dec - 03:09:04 10° W 03:24:25 79° N 03:37:44 10° E daylight
12 Dec - 05:16:41 10° WNW 05:31:38 79° SSW 05:42:45 10° ESE daylight
12 Dec - 07:25:01 10° WNW 07:36:18 34° SW 07:44:41 10° SSE daylight
12 Dec - 20:28:21 10° SSE 20:33:09 13° ESE 20:38:27 10° E visible
12 Dec - 22:25:20 10° SSW 22:36:39 48° SE 22:50:38 10° ENE daylight
13 Dec - 00:28:59 10° WSW 00:42:46 87° SSE 00:57:57 10° ENE daylight
13 Dec - 02:35:28 10° W 02:50:37 78° N 03:04:31 10° E daylight
13 Dec - 04:42:54 10° WNW 04:58:08 83° SSW 05:09:57 10° ESE daylight
13 Dec - 06:50:56 10° WNW 07:03:19 40° SW 07:12:31 10° SSE daylight
13 Dec - 21:52:52 10° SSW 22:03:24 42° SE 22:16:44 10° ENE daylight
13 Dec - 23:55:54 10° WSW 00:09:04 84° SSE 00:24:24 10° ENE daylight
14 Dec - 02:01:57 10° W 02:16:48 78° N 02:31:12 10° E daylight
14 Dec - 04:09:09 10° WNW 04:24:33 87° SSW 04:37:02 10° ESE daylight
14 Dec - 06:16:56 10° WNW 06:30:14 46° SW 06:40:11 10° SSE daylight
14 Dec - 08:30:33 10° WSW 08:33:12 11° WSW 08:35:40 10° SW visible
14 Dec - 21:20:32 10° SSW 21:30:14 37° SE 21:42:44 10° ENE daylight
14 Dec - 23:22:55 10° WSW 23:35:27 79° SSE 23:50:45 10° ENE daylight
15 Dec - 01:28:32 10° W 01:42:57 79° N 01:57:47 10° E daylight
15 Dec - 03:35:30 10° WNW 03:50:53 89° NNE 04:04:01 10° ESE daylight
15 Dec - 05:43:00 10° WNW 05:57:01 52° SW 06:07:45 10° SSE daylight
15 Dec - 07:54:14 10° W 08:00:24 15° WSW 08:05:47 10° SSW visible
15 Dec - 20:48:22 10° S 20:57:12 32° SE 21:08:36 10° ENE visible
15 Dec - 22:50:03 10° SW 23:01:54 74° SSE 23:17:01 10° ENE daylight
16 Dec - 00:55:13 10° W 01:09:09 80° N 01:24:18 10° E daylight
16 Dec - 03:01:54 10° WNW 03:17:09 86° NNE 03:30:53 10° ESE daylight
16 Dec - 05:09:10 10° WNW 05:23:42 58° SW 05:35:10 10° SE daylight
16 Dec - 07:19:11 10° W 07:27:33 19° SW 07:34:36 10° SSW daylight
16 Dec - 20:16:23 10° S 20:24:15 26° SE 20:34:20 10° E visible
16 Dec - 22:17:19 10° SW 22:28:28 69° SSE 22:43:14 10° ENE daylight
17 Dec - 00:22:01 10° W 00:35:21 81° N 00:50:43 10° E daylight
17 Dec - 02:28:24 10° WNW 02:43:22 84° NNE 02:57:38 10° ESE daylight
17 Dec - 04:35:24 10° WNW 04:50:17 63° SSW 05:02:28 10° SE daylight
17 Dec - 06:44:33 10° W 06:54:37 24° SW 07:02:57 10° S daylight
17 Dec - 19:44:38 10° S 19:51:25 21° SE 19:59:54 10° E visible
17 Dec - 21:44:41 10° SW 21:55:07 63° SSE 22:09:24 10° ENE daylight
